Regional Weather Roundup
Issued by NWS Upton, NY

Current Version | Previous Version | Text Only | Print | Product List | Glossary On
Versions: 1 2 3 4 5 6 7 8 9 10 11 12 13 14 15 16 17 18 19 20 21 22 23 24 25 26 27
000
ASUS41 KOKX 260309
RWROKX

REGIONAL WEATHER ROUNDUP
NATIONAL WEATHER SERVICE NEW YORK NY
1100 PM EDT SUN JUN 25 2017

NOTE: "FAIR" INDICATES FEW OR NO CLOUDS BELOW 12,000 FEET WITH NO
SIGNIFICANT WEATHER AND/OR OBSTRUCTIONS TO VISIBILITY.

NYZ071-072-176-178-NJZ106-104-260400-
NEW YORK CITY METRO AREA

CITY           SKY/WX    TMP DP  RH WIND       PRES   REMARKS
Central Park   CLOUDY    78  51  38 W8        29.98R
Bronx Bot Gard   N/A     77  50  38 W3        29.95F
LaGuardia APRT CLOUDY    79  53  40 W10       29.94R
Kennedy INTL   CLOUDY    71  68  90 S7        29.96R
Breezy Point     N/A     68 N/A N/A SW6         N/A
Newark/Liberty CLOUDY    77  52  41 W9        29.96R
Teterboro      CLOUDY    75  53  46 W7        29.94R
$$

NYZ177-179-078>081-260400-
LONG ISLAND NEW YORK

CITY           SKY/WX    TMP DP  RH WIND       PRES   REMARKS
Jones Beach      N/A     70 N/A N/A SW8G15      N/A
Matinecock PT  NOT AVBL
Farmingdale    NOT AVBL
MacArthur/ISP  MOCLDY    70  65  84 SW7       29.95S
Shirley        CLEAR     69  66  90 SW5       29.96S
Mt Sinai Harb    N/A    N/A N/A N/A S8          N/A
Westhampton    PTCLDY    61  57  87 CALM      29.97F
East Hampton   FAIR      66  60  81 SW3       29.94F
Montauk          N/A     71  58  63 VRB5      29.95F
$$

NYZ052-065-067-260400-
HUDSON VALLEY

CITY           SKY/WX    TMP DP  RH WIND       PRES   REMARKS
White Plains   NOT AVBL
Larchmont Harb   N/A     68 N/A N/A SW2         N/A
Croton O-T Hud   N/A     70 N/A N/A N1          N/A
Newburgh       CLEAR     64  55  72 W7        30.00R
Montgomery     PTCLDY    68  51  54 NW15G24   29.99R
Poughkeepsie   MOCLDY    67  54  63 N9        29.97R
Albany         CLOUDY    60  55  83 SE5       29.98F
$$

NJZ001-105-106-008-010-013-015-019>022-104-260400-
NEW JERSEY

CITY           SKY/WX    TMP DP  RH WIND       PRES   REMARKS
Newark/Liberty CLOUDY    77  52  41 W9        29.96R
Teterboro      CLOUDY    75  53  46 W7        29.94R
Caldwell       MOCLDY    70  58  65 CALM      29.97R
Somerville     MOCLDY    66  61  84 CALM      29.96R
Linden         MOCLDY    76  51  41 W6        29.96S
Perth Amboy      N/A     75 N/A N/A W8          N/A
Sussex         CLEAR     68  52  56 N12G17    30.01R
Andover          N/A     61  58  90 S3        30.00R
Trenton        PTCLDY    75  54  47 W7        29.99R
Millville      CLEAR     69  58  67 W6        30.00S
Atlantic City  CLEAR     72  62  71 SW5       30.00R
Wrightstown    CLEAR     70  59  68 CALM        N/A
Toms River     CLEAR     66  59  78 CALM      29.99R
Belmar         PTCLDY    71  61  70 SW6       29.99R
$$

PAZ047>061-062-071-260400-
EASTERN PENNSYLVANIA

CITY           SKY/WX    TMP DP  RH WIND       PRES   REMARKS
Philadelphia   PTCLDY    77  49  37 W10       30.00R
Allentown      CLEAR     68  50  52 W3        30.00R
Scranton       CLEAR     64  51  62 N5        30.04R
$$

CTZ002-004>006-009-010-012-RIZ004-006-007-MAZ004-011-015-260400-
SOUTHERN NEW ENGLAND
 IN CT

CITY           SKY/WX    TMP DP  RH WIND       PRES   REMARKS
Bradley INTL   MOCLDY    66  56  70 NW3       29.97R
Hartford       CLOUDY    69  59  70 N8        29.95R
Danbury        CLEAR     64  58  80 CALM      29.96S
Wtrbury/Oxford CLEAR     64  54  68 CALM        N/A
Bridgeport     PTCLDY    70  61  73 W3        29.94S
Meriden        PTCLDY    64  59  83 CALM      29.94S
New Haven      NOT AVBL
Chester        FAIR      66  61  82 SW3       29.95F
Groton         PTCLDY    68  60  75 CALM      29.93F
Wilimantic     CLEAR     72  59  63 NW5       29.96R

 IN RI

CITY           SKY/WX    TMP DP  RH WIND       PRES   REMARKS
Providence     CLEAR     69  58  67 W7        29.93F
Block Island   PTCLDY    67  61  81 SW9       29.95F
Westerly       CLEAR     68  61  78 SW3       29.95S
 IN MA

CITY           SKY/WX    TMP DP  RH WIND       PRES   REMARKS
Boston         CLOUDY    66  57  72 NW10      29.93F
Worcester      LGT RAIN  60  57  89 S5        29.97S
Westfield      CLOUDY    64  61  90 W8          N/A
Provincetown   CLEAR     65  59  81 S9        29.93R
Nantucket        N/A     63  62  97 SW8       29.95S
$$

ANZ330-335-338-340-345-350-353-355-260400-
COASTAL MARINE OBSERVATIONS


STATION/POSITION TIME  SKY/WX   TEMP    WIND        PRES    VSBY  WAVE
                                AIR SEA DIR/SP/G                  HT/PER
                 (UTC)          (F)     (DEG/KT/KT) (MB)    (MI)  (FT/S)
NY HARB ENTRANCE 0150            70 68  220/ 17/ 19 1013.6          2/ 7
20 S FIRE ISLAND 0250            72 70  240/ 16/ 19 1013.7          3/ 7
GREAT SOUTH BAY  0215            72 77  240/ 12/ 14   N/A
23 SSW MONTAUK P 0150            68 67              1014.7          3/ 7
15 E BARNEGAT LI 0230               65                N/A           3/ 7
HUDSON CANYON    0150            70 68  220/ 10/ 10 1014.4          2/ 6
KINGS POINT      0230            72 66  180/  6/  7 1014.0
EXECUTION ROCKS  0230            70      CALM  /  2   N/A
CENTRAL LI SOUND NOT AVBL
EASTERN LI SOUND NOT AVBL
ROBBINS REEF     0230                   270/ 10/ 12 1014.8
$$


>>>>>>>>>>>>>>>>>>>>>>>>>>>> KEY <<<<<<<<<<<<<<<<<<<<<<<<<<<
>                                                          <
>     SKY/WX - Sky Condition/Present Weather               <
>     TMP    - Temperature in Fahrenheit                   <
>     DP     - Dew Point in Fahrenheit                     <
>     RH     - Relative Humidity in Percent                <
>     WIND   - Direction (from) and Speed in MPH           <
>     PRES   - Mean Sea Level Pressure (inches of Hg)      <
>     WCI    - Wind Chill Index                            <
>     VSB    - VISIBILITY IN MILES                         <
>     HX     - HEAT INDEX                                  <
>     TC     - TEMPERATURE IN CELSIUS                      <
>     VRB    - VARIABLE WIND DIRECTION                     <
>                                                          <
>>>>>>>>>>>>>>>>>>>>>>>>>>>> KEY <<<<<<<<<<<<<<<<<<<<<<<<<<<




USA.gov is the U.S. government's official web portal to all federal, state and local government web resources and services.